GW6483 Weather Reports


time (UTC)temp
C
wind
direction
speed
KPH
gust
KPH
rain 1hr
cm
rain 24hr
cm
rain mn
cm
humidity
%
barometer
mb
20260505111618 21 80 3.2 4.8 0.00 0.00 0.00 86 1018.0
20260505111115 21 87 4.8 4.8 0.00 0.00 0.00 85 1018.0
20260505110615 21 82 4.8 6.4 0.00 0.00 0.00 85 1018.0
20260505110115 21 71 4.8 6.4 0.00 0.00 0.00 86 1018.0
20260505102117 21 112 3.2 4.8 0.00 0.00 0.00 86 1018.0
20260505101618 21 116 1.6 3.2 0.00 0.00 0.00 86 1018.0
20260505101115 21 109 3.2 3.2 0.00 0.00 0.00 86 1018.0
20260505100617 21 114 1.6 4.8 0.00 0.00 0.00 86 1018.0
20260505100115 21 86 3.2 4.8 0.00 0.00 0.00 86 1017.0
20260505095618 21 99 3.2 3.2 0.00 0.00 0.00 85 1017.0
20260505095117 21 103 3.2 3.2 0.00 0.00 0.00 85 1017.0
20260505094619 21 91 3.2 4.8 0.00 0.00 0.00 85 1017.0
20260505094117 21 95 1.6 3.2 0.00 0.00 0.00 85 1017.0
20260505093615 21 48 3.2 4.8 0.00 0.00 0.00 85 1017.0
20260505093116 21 49 3.2 4.8 0.00 0.00 0.00 84 1018.0
20260505092617 21 68 4.8 4.8 0.00 0.00 0.00 85 1017.0
20260505092117 21 59 3.2 4.8 0.00 0.00 0.00 84 1017.0
20260505091617 21 78 3.2 4.8 0.00 0.00 0.00 84 1017.0
20260505091118 21 50 6.4 6.4 0.00 0.00 0.00 85 1018.0
20260505090616 21 64 3.2 6.4 0.00 0.00 0.00 85 1017.0
20260505090115 21 60 4.8 6.4 0.00 0.00 0.00 85 1017.0
20260505085617 21 61 4.8 6.4 0.00 0.00 0.00 85 1017.0
20260505085116 21 48 3.2 4.8 0.00 0.00 0.00 85 1017.0
20260505084617 21 50 3.2 4.8 0.00 0.00 0.00 85 1017.0
20260505083628 21 77 4.8 6.4 0.00 0.00 0.00 84 1017.0
20260505083117 22 52 4.8 6.4 0.00 0.00 0.00 84 1017.0
20260505082615 22 60 4.8 6.4 0.00 0.00 0.00 83 1017.0
20260505082115 22 60 4.8 6.4 0.00 0.00 0.00 83 1017.0
20260505081617 22 74 4.8 6.4 0.00 0.00 0.00 83 1016.0
20260505081117 22 35 3.2 3.2 0.00 0.00 0.00 83 1017.0
20260505080615 22 37 3.2 4.8 0.00 0.00 0.00 83 1016.0
20260505080117 22 68 4.8 8.0 0.00 0.00 0.00 82 1016.0
20260505075616 22 58 4.8 6.4 0.00 0.00 0.00 82 1016.0
20260505075120 22 50 4.8 8.0 0.00 0.00 0.00 82 1016.0
20260505074617 22 32 8.0 8.0 0.00 0.00 0.00 82 1016.0
20260505074115 22 8 1.6 6.4 0.00 0.00 0.00 81 1016.0
20260505073615 22 27 6.4 6.4 0.00 0.00 0.00 81 1016.0
20260505073117 22 53 4.8 6.4 0.00 0.00 0.00 81 1016.0
20260505072615 22 38 6.4 8.0 0.00 0.00 0.00 80 1016.0
20260505072116 22 39 4.8 9.7 0.00 0.00 0.00 80 1016.0
20260505071616 22 46 8.0 11.3 0.00 0.00 0.00 80 1016.0
20260505071115 22 31 8.0 9.7 0.00 0.00 0.00 80 1016.0
20260505070203 22 43 6.4 12.9 0.00 0.00 0.00 79 1016.0
20260505065615 22 357 4.8 11.3 0.00 0.00 0.00 78 1016.0
20260505065115 22 6 4.8 9.7 0.00 0.00 0.00 78 1016.0
20260505064616 23 40 8.0 9.7 0.00 0.00 0.00 77 1016.0
20260505064116 23 32 6.4 9.7 0.00 0.00 0.00 76 1016.0
20260505063617 23 49 4.8 11.3 0.00 0.00 0.00 75 1016.0
20260505063117 23 38 6.4 16.1 0.00 0.00 0.00 74 1016.0
20260505062615 23 35 11.3 16.1 0.00 0.00 0.00 74 1016.0
20260505062115 23 42 9.7 14.5 0.00 0.00 0.00 74 1016.0
20260505061615 23 39 9.7 14.5 0.00 0.00 0.00 73 1016.0
20260505061115 23 33 6.4 14.5 0.00 0.00 0.00 73 1016.0
20260505060615 23 64 11.3 16.1 0.00 0.00 0.00 72 1016.0
20260505060115 23 15 6.4 11.3 0.00 0.00 0.00 71 1016.0
20260505055617 23 23 6.4 11.3 0.00 0.00 0.00 71 1016.0
20260505055115 23 31 12.9 12.9 0.00 0.00 0.00 71 1016.0
20260505054615 23 31 11.3 14.5 0.00 0.00 0.00 71 1015.0
20260505054115 23 49 8.0 14.5 0.00 0.00 0.00 70 1015.0
20260505053615 24 62 11.3 16.1 0.00 0.00 0.00 69 1015.0
20260505053116 24 33 6.4 16.1 0.00 0.00 0.00 69 1015.0
20260505052615 24 38 8.0 17.7 0.00 0.00 0.00 68 1016.0
20260505052115 24 73 11.3 12.9 0.00 0.00 0.00 69 1016.0
20260505051616 24 21 8.0 17.7 0.00 0.00 0.00 68 1015.0
20260505051115 25 6 11.3 16.1 0.00 0.00 0.00 68 1016.0
20260505050615 25 19 4.8 17.7 0.00 0.00 0.00 68 1016.0
20260505050115 25 71 9.7 16.1 0.00 0.00 0.00 68 1016.0
20260505041617 26 86 3.2 8.0 0.00 0.00 0.00 60 1015.0
20260505041117 26 284 3.2 8.0 0.00 0.00 0.00 60 1015.0
20260505040617 26 10 3.2 4.8 0.00 0.00 0.00 60 1015.0
20260505040115 26 329 3.2 4.8 0.00 0.00 0.00 60 1015.0
20260505035615 26 332 3.2 8.0 0.00 0.00 0.00 60 1015.0
20260505035116 26 37 4.8 6.4 0.00 0.00 0.00 60 1015.0
20260505034617 26 0 4.8 9.7 0.00 0.00 0.00 60 1015.0
20260505034115 26 50 3.2 8.0 0.00 0.00 0.00 60 1015.0
20260505033615 26 78 4.8 8.0 0.00 0.00 0.00 59 1015.0
20260505033116 27 55 3.2 4.8 0.00 0.00 0.00 58 1015.0
20260505032616 27 351 1.6 3.2 0.00 0.00 0.00 59 1015.0
20260505032115 26 19 4.8 4.8 0.00 0.00 0.00 60 1015.0
20260505031616 26 205 3.2 4.8 0.00 0.00 0.00 60 1015.0
20260505031115 26 336 1.6 4.8 0.00 0.00 0.00 60 1015.0
20260505030615 26 260 1.6 8.0 0.00 0.00 0.00 60 1015.0
20260505030117 26 63 8.0 14.5 0.00 0.00 0.00 60 1015.0
20260505025617 27 147 3.2 4.8 0.00 0.00 0.00 59 1015.0
20260505025119 25 306 3.2 4.8 0.00 0.00 0.00 61 1015.0
20260505024619 25 65 6.4 9.7 0.00 0.00 0.00 61 1016.0
20260505024117 26 91 8.0 8.0 0.00 0.00 0.00 61 1016.0
20260505023616 26 57 4.8 6.4 0.00 0.00 0.00 60 1016.0
20260505023118 27 220 3.2 8.0 0.00 0.00 0.00 60 1016.0
20260505022621 26 321 0.0 4.8 0.00 0.00 0.00 62 1016.0
20260505022117 26 22 3.2 4.8 0.00 0.00 0.00 64 1016.0
20260505021624 26 238 3.2 4.8 0.00 0.00 0.00 63 1016.0
20260505021119 26 185 3.2 8.0 0.00 0.00 0.00 62 1016.0
20260505020620 25 122 0.0 3.2 0.00 0.00 0.00 64 1016.0
20260505020117 25 223 1.6 3.2 0.00 0.00 0.00 63 1016.0
20260505015616 25 235 1.6 6.4 0.00 0.00 0.00 65 1016.0
20260505015115 26 99 4.8 8.0 0.00 0.00 0.00 64 1016.0
20260505014616 25 144 1.6 4.8 0.00 0.00 0.00 65 1017.0
20260505014115 25 218 1.6 4.8 0.00 0.00 0.00 66 1016.0
20260505013615 26 182 6.4 6.4 0.00 0.00 0.00 63 1017.0
20260505013116 26 354 3.2 4.8 0.00 0.00 0.00 63 1017.0
20260505012615 26 232 6.4 8.0 0.00 0.00 0.00 63 1017.0
20260505012115 26 183 4.8 8.0 0.00 0.00 0.00 64 1017.0
20260505011616 25 16 4.8 4.8 0.00 0.00 0.00 66 1017.0
20260505011117 25 21 4.8 4.8 0.00 0.00 0.00 67 1017.0
20260505010615 24 316 3.2 4.8 0.00 0.00 0.00 69 1017.0
20260505010119 25 336 3.2 6.4 0.00 0.00 0.00 68 1018.0
20260505005619 25 288 4.8 6.4 0.00 0.00 0.00 67 1018.0
20260505005117 25 208 8.0 9.7 0.00 0.00 0.00 68 1018.0
20260505004615 23 115 0.0 8.0 0.00 0.00 0.00 72 1018.0
20260505004115 24 37 8.0 9.7 0.00 0.00 0.00 71 1018.0
20260505003615 24 76 4.8 4.8 0.00 0.00 0.00 72 1018.0
20260505003115 24 166 6.4 8.0 0.00 0.00 0.00 73 1018.0
20260505002615 24 146 3.2 4.8 0.00 0.00 0.00 74 1018.0
20260505002115 24 283 3.2 4.8 0.00 0.00 0.00 73 1018.0
20260505001615 24 184 9.7 9.7 0.00 0.00 0.00 73 1018.0
20260505001115 23 204 6.4 8.0 0.00 0.00 0.00 75 1018.0
20260505000616 23 316 1.6 8.0 0.00 0.00 0.00 75 1018.0
20260505000115 23 241 6.4 6.4 0.00 0.00 0.00 74 1018.0
20260504235615 23 189 3.2 8.0 0.00 0.00 0.00 76 1018.0
20260504235116 23 298 1.6 6.4 0.00 0.00 0.00 78 1018.0
20260504234615 22 261 0.0 6.4 0.00 0.00 0.00 80 1018.0
20260504234115 22 260 8.0 8.0 0.00 0.00 0.00 80 1018.0
20260504233616 22 225 6.4 8.0 0.00 0.00 0.00 81 1018.0
20260504233115 22 244 6.4 9.7 0.00 0.00 0.00 82 1019.0
20260504232616 22 186 1.6 9.7 0.00 0.00 0.00 82 1018.0
20260504232115 22 197 4.8 6.4 0.00 0.00 0.00 83 1018.0
20260504231615 21 303 0.0 9.7 0.00 0.00 0.00 84 1019.0
20260504231115 21 170 4.8 9.7 0.00 0.00 0.00 84 1019.0
20260504230615 21 130 1.6 8.0 0.00 0.00 0.00 86 1018.0
20260504230121 21 273 0.0 8.0 0.00 0.00 0.00 87 1018.0
20260504225615 21 218 3.2 8.0 0.00 0.00 0.00 88 1018.0
20260504225115 20 199 4.8 9.7 0.00 0.00 0.00 89 1018.0
20260504224617 20 189 6.4 11.3 0.00 0.00 0.00 90 1018.0
20260504224117 20 158 3.2 9.7 0.00 0.00 0.00 91 1018.0
20260504223615 20 174 6.4 9.7 0.00 0.00 0.00 91 1018.0
20260504223116 20 209 4.8 4.8 0.00 0.00 0.00 96 1018.0
20260504222615 20 153 4.8 8.0 0.00 0.00 0.00 97 1018.0
20260504222116 19 225 0.0 6.4 0.00 0.00 0.00 98 1018.0
20260504221616 19 159 4.8 4.8 0.00 0.00 0.00 98 1018.0
20260504221116 18 229 1.6 9.7 0.00 0.00 0.00 98 1018.0
20260504220615 18 148 8.0 8.0 0.00 0.00 0.00 98 1018.0
20260504220115 18 173 1.6 4.8 0.00 0.00 0.00 98 1018.0
20260504215615 18 253 4.8 6.4 0.00 0.00 0.00 98 1018.0
20260504215115 18 126 3.2 4.8 0.00 0.00 0.00 98 1018.0
20260504214615 18 175 1.6 4.8 0.00 0.00 0.00 98 1018.0
20260504214115 18 248 0.0 3.2 0.00 0.00 0.00 98 1018.0
20260504213615 18 166 0.0 4.8 0.00 0.00 0.00 98 1018.0
20260504213117 18 139 4.8 8.0 0.00 0.00 0.00 98 1018.0
20260504212616 18 103 3.2 4.8 0.00 0.00 0.00 98 1018.0
20260504212115 18 231 3.2 6.4 0.00 0.00 0.00 98 1018.0
20260504211618 18 161 4.8 6.4 0.00 0.00 0.00 98 1018.0
20260504211116 17 266 1.6 6.4 0.00 0.00 0.00 98 1018.0
20260504210616 17 188 1.6 4.8 0.00 0.00 0.00 98 1018.0
20260504210115 17 182 4.8 4.8 0.00 0.00 0.00 98 1018.0
20260504205615 17 145 6.4 8.0 0.00 0.00 0.00 98 1018.0
20260504205116 17 177 3.2 4.8 0.00 0.00 0.00 98 1018.0
20260504204615 17 219 1.6 4.8 0.00 0.00 0.00 98 1018.0
20260504204115 17 106 0.0 3.2 0.00 0.00 0.00 98 1018.0
20260504203618 17 134 1.6 6.4 0.00 0.00 0.00 98 1018.0
20260504203115 17 163 4.8 4.8 0.00 0.00 0.00 98 1018.0
20260504202617 17 99 1.6 4.8 0.00 0.00 0.00 98 1018.0
20260504202115 17 221 1.6 8.0 0.00 0.00 0.00 98 1018.0
20260504201617 17 178 3.2 6.4 0.00 0.00 0.00 98 1018.0
20260504201116 17 149 4.8 4.8 0.00 0.00 0.00 98 1017.0
20260504200616 17 167 4.8 8.0 0.00 0.00 0.00 98 1017.0
20260504200115 17 220 4.8 8.0 0.00 0.00 0.00 98 1017.0
20260504195616 17 193 3.2 4.8 0.00 0.00 0.00 98 1017.0
20260504195117 17 252 3.2 4.8 0.00 0.00 0.00 98 1017.0
20260504194617 17 213 3.2 4.8 0.00 0.00 0.00 98 1017.0
20260504194118 17 45 1.6 4.8 0.00 0.00 0.00 98 1017.0
20260504193616 17 167 4.8 6.4 0.00 0.00 0.00 97 1017.0
20260504193115 17 179 0.0 4.8 0.00 0.00 0.00 98 1017.0
20260504192616 17 143 3.2 4.8 0.00 0.00 0.00 98 1017.0
20260504191630 17 239 1.6 6.4 0.00 0.00 0.00 97 1017.0
20260504191115 17 161 0.0 4.8 0.00 0.00 0.00 97 1017.0
20260504190615 17 167 1.6 3.2 0.00 0.00 0.00 97 1017.0
20260504190115 17 140 3.2 4.8 0.00 0.00 0.00 97 1017.0
20260504185616 17 129 3.2 4.8 0.00 0.00 0.00 97 1017.0
20260504185121 17 220 0.0 3.2 0.00 0.00 0.00 97 1017.0
20260504184615 17 161 1.6 3.2 0.00 0.00 0.00 97 1017.0
20260504184115 17 123 3.2 4.8 0.00 0.00 0.00 97 1017.0
20260504183615 17 89 0.0 3.2 0.00 0.00 0.00 97 1017.0
20260504183115 17 140 1.6 3.2 0.00 0.00 0.00 97 1016.0
20260504182615 17 187 1.6 4.8 0.00 0.00 0.00 97 1017.0
20260504182115 17 237 3.2 3.2 0.00 0.00 0.00 97 1016.0
20260504181616 17 151 1.6 4.8 0.00 0.00 0.00 97 1017.0
20260504181116 17 206 0.0 3.2 0.00 0.00 0.00 97 1016.0
20260504180616 17 98 1.6 3.2 0.00 0.00 0.00 97 1016.0
20260504180115 17 211 1.6 4.8 0.00 0.00 0.00 97 1016.0
20260504175616 18 300 0.0 3.2 0.00 0.00 0.00 97 1016.0
20260504175116 18 262 1.6 3.2 0.00 0.00 0.00 97 1016.0
20260504174616 18 279 1.6 3.2 0.00 0.00 0.00 97 1016.0
20260504174118 18 180 3.2 3.2 0.00 0.00 0.00 97 1016.0
20260504173616 18 180 0.0 3.2 0.00 0.00 0.00 97 1017.0
20260504173116 18 267 3.2 4.8 0.00 0.00 0.00 97 1017.0
20260504172616 18 278 3.2 6.4 0.00 0.00 0.00 97 1016.0
20260504172116 18 175 3.2 3.2 0.00 0.00 0.00 97 1016.0
20260504171616 18 214 1.6 6.4 0.00 0.00 0.00 97 1016.0
20260504171115 18 273 1.6 4.8 0.00 0.00 0.00 97 1016.0
20260504170616 18 247 3.2 4.8 0.00 0.00 0.00 97 1017.0
20260504170115 18 235 1.6 4.8 0.00 0.00 0.00 97 1016.0
20260504160117 18 187 3.2 4.8 0.00 0.00 0.00 96 1017.0
20260504151116 18 235 0.0 3.2 0.00 0.00 0.00 95 1017.0
20260504150616 18 40 1.6 3.2 0.00 0.00 0.00 95 1017.0
20260504150116 19 180 3.2 3.2 0.00 0.00 0.00 95 1017.0
20260504141117 18 146 3.2 4.8 0.00 0.00 0.00 95 1017.0
20260504140620 18 300 1.6 4.8 0.00 0.00 0.00 95 1018.0
20260504140120 18 147 3.2 4.8 0.00 0.00 0.00 95 1018.0
20260504130619 19 224 3.2 4.8 0.00 0.00 0.00 93 1018.0
20260504130119 19 132 0.0 6.4 0.00 0.00 0.00 93 1018.0
20260504120115 20 122 3.2 4.8 0.00 0.00 0.00 91 1018.0